Simultaneous Nadir Overpasses (SNOs) Predictions

Prediction of SNOs between GOES-15 and METOP-A Satellite Orbit:

Table of predicted SNOs for the next 14.0 days since TLE Epoch: 11/16/2019
Index Date Time (GOES-15) GOES-15 Lat,Lon METOP-A Lat,Lon Distance(km) Time Diff (sec)
1 11/16/2019 05:35:46 0.24,-128.51 -0.02,-129.61 126.27 80
2 11/17/2019 05:12:27 0.24,-128.50 1.12,-124.64 440.62 80
3 11/18/2019 17:31:20 -0.23,-128.50 -0.10,-129.23 82.50 80
4 11/19/2019 17:13:20 -0.23,-128.50 -1.19,-124.25 484.44 80
5 11/21/2019 05:32:21 0.23,-128.48 0.17,-128.87 44.50 80
6 11/23/2019 17:27:54 -0.22,-128.46 -0.24,-128.48 3.29 80
7 11/26/2019 05:26:16 0.22,-128.43 0.32,-128.12 35.33 80
8 11/27/2019 17:45:07 -0.21,-128.40 0.75,-132.70 490.12 80
9 11/28/2019 17:27:08 -0.21,-128.39 -0.33,-127.72 75.90 80




NCC Satellite Simultaneous Nadir Overpasses (SNOs) Prediction Service
